STARLINK-2135, 47408

Orbit data source: Space-Track

STARLINK-2135, 47408 is a payload satellite owned by SpaceX/Seattle (US) in LEO that was launched on Wed, 20 Jan 2021 UTC via an FALCON 9 launch vehicle from the Air Force Eastern Test Range (AFETR). Payload-class satellites include a variety of spacecraft equipped with specific instruments for various scientific and technological missions. These include communications satellites like Starlink; space stations such as the ISS; scientific satellites like the Hubble; Earth observation satellites from companies like Planet Labs, Umbra, and HawkEye 360; GPS; miniature CubeSats for education and research; and military/defense satellites.

Loading next visibility...
Identifier
47408, 2021-005BM
Orbit
LEO
Country
Flag of USUS
Related business
Manufacturer
SpaceX/Seattle
Mission
Operational Commercial Communications
Bus & Motor
STARLINK, Unknown motor
Mass
260 kg wet, ~248 kg dry
Launch date (UTC)
2021-01-20 (5 years ago)
Launch vehicle
FALCON 9
Launch site
Air Force Eastern Test Range (AFETR)
Object type
Payload
Rocket body
Debris
Shape & HBR
Box + 1 Pan, 10.1 m
Radar Cross Section
13.562 m², Large (>1 m²)

Expand to show TLE details & history
Last TLE update: 2 days ago

TLE from 2 days ago
0 STARLINK-2135
1 47408U 21005BM  26171.44377898 -.00000141  00000-0  72170-5 0  9997
2 47408  53.1573 279.1576 0001014  83.7140 276.3977 15.31689759299123
Epoch: 2026-06-20T10:39Z
TLE epoch observation values (Epoch: 2026-06-20T10:39:02.503Z)
Latitude
-0.00003°
Longitude
-149.26117°
Altitude
471.593 km
Speed
7.632 km/s
True Right ascension
18h 36m 37s
True Declination
0° 00' 00"
Sunlit
Object was in full shadow at epoch
Visualization orbit readout
Latitude
Unknown
Longitude
Unknown
Altitude
Unknown
Speed
Unknown
Apparent Right ascension
Unknown
Apparent Declination
Unknown
Sunlit
N/A
Visualization observer readout
Local Sidereal Time
21:28:13
Azimuth
Unknown
Elevation
Unknown
Doppler factor
Unknown
Orbital elements
Apogee altitude
471.722 km
Perigee altitude
470.333 km
Semi-major axis
6,849.165 km
Eccentricity
0.0001
Inclination
53.1573°
RAAN
279.1576°
Arg. of periapsis
83.714°
True anomaly
276.38615°
Mean anomaly
276.3977°
Eccentric anomaly
276.39193°
Mean motion
3.82901 °/min
Orbital period
94.02 mins
BSTAR
0.000007217
Loading maneuver chart data...
Computing Atmospheric mass density...

Documentation

Showing up to 5 results
|